This is the latest recevied weather packets stored in our database for station/object W4OTS. If no packets are shown the sender has not sent any weather packets the latest 1 day(s).
| Time | Temp. | Humidity | Pressure | Rain* | Wind** | Luminosity | Snow |
|---|---|---|---|---|---|---|---|
| 1777984572 | 15° C | 77% | 1018.4 hPa | 0 mm | 0 m/s | 46 W/m² | - |
| 1777984269 | 14.44° C | 80% | 1018.3 hPa | 0 mm | 0.45 m/s, 246° | 44 W/m² | - |
| 1777983966 | 14.44° C | 79% | 1018.1 hPa | 0 mm | 0 m/s | 43 W/m² | - |
| 1777983662 | 13.89° C | 79% | 1018.2 hPa | 0 mm | 0.45 m/s, 186° | 42 W/m² | - |
| 1777983359 | 13.89° C | 80% | 1018.2 hPa | 0 mm | 0.45 m/s, 211° | 40 W/m² | - |
| 1777983056 | 13.33° C | 81% | 1018.1 hPa | 0 mm | 0.45 m/s, 207° | 39 W/m² | - |
| 1777982751 | 13.33° C | 82% | 1018.2 hPa | 0 mm | 0.89 m/s, 174° | 38 W/m² | - |
| 1777982447 | 13.33° C | 82% | 1018.1 hPa | 0 mm | 0.45 m/s, 212° | 37 W/m² | - |
| 1777982142 | 12.78° C | 82% | 1018.1 hPa | 0 mm | 0.45 m/s, 200° | 35 W/m² | - |
| 1777981840 | 12.78° C | 83% | 1017.9 hPa | 0 mm | 0.45 m/s, 210° | 35 W/m² | - |
| 1777981537 | 12.78° C | 84% | 1017.8 hPa | 0 mm | 0.45 m/s, 225° | 34 W/m² | - |
| 1777981233 | 12.78° C | 83% | 1017.8 hPa | 0 mm | 0 m/s | 32 W/m² | - |
| 1777980930 | 12.22° C | 83% | 1017.7 hPa | 0 mm | 0.45 m/s, 204° | 30 W/m² | - |
| 1777980626 | 12.22° C | 85% | 1017.6 hPa | 0 mm | 0 m/s | 26 W/m² | - |
| 1777980322 | 11.67° C | 85% | 1017.7 hPa | 0 mm | 0 m/s | 26 W/m² | - |
| 1777980021 | 11.67° C | 86% | 1017.6 hPa | 0 mm | 0 m/s | 25 W/m² | - |
| 1777979714 | 11.67° C | 86% | 1017.6 hPa | 0 mm | 0.45 m/s, 249° | 23 W/m² | - |
| 1777979410 | 11.67° C | 86% | 1017.7 hPa | 0 mm | 0.45 m/s, 209° | 21 W/m² | - |
| 1777979107 | 11.67° C | 86% | 1017.8 hPa | 0 mm | 0 m/s | 17 W/m² | - |
| 1777978803 | 11.11° C | 86% | 1017.7 hPa | 0 mm | 0 m/s | 15 W/m² | - |
| 1777978500 | 11.11° C | 86% | 1017.8 hPa | 0 mm | 0.45 m/s, 228° | 13 W/m² | - |
| 1777978196 | 11.11° C | 86% | 1017.6 hPa | 0 mm | 0.45 m/s, 197° | 9 W/m² | - |
| 1777977888 | 10.56° C | 88% | 1017.7 hPa | 0 mm | 0 m/s | 5 W/m² | - |
| 1777977585 | 10.56° C | 88% | 1017.9 hPa | 0 mm | 0 m/s | 2 W/m² | - |
| 1777977282 | 10.56° C | 87% | 1017.9 hPa | 0 mm | 0 m/s | 1 W/m² | - |
* Rain latest hour (hover to see other rain measurements)
** Current wind speed in m/s (hover to see current wind gust speed)